Tracking 31027 objects as of 19-Jul-2025
HD Live streaming from Space Station
objects crossing your sky now

STARLINK-31913

Track STARLINK-31913 now!
10-day predictions
STARLINK-31913 is classified as:


NORAD ID: 59667
Int'l Code: 2024-084P
Perigee: 489.5 km
Apogee: 490.9 km
Inclination: 43.0 °
Period: 94.3 minutes
Semi major axis: 6861 km
RCS: Unknown
Launch date: May 6, 2024
Source: United States (US)
Launch site: AIR FORCE EASTERN TEST RANGE (AFETR)
Your satellite tracking list
TITAN 3C TRANSTAGE DEB
Track 1 satellite(s)




NASA's NSSDC Master Catalog

Two Line Element Set (TLE):
1 59667U 24084P   25199.59449581  .00000162  00000-0  15424-4 0  9991
2 59667  42.9990 280.1849 0001070 260.6409  99.4321 15.27576321 68613
Source of the keplerian elements: AFSPC